Time,TemperatureF,DewpointF,PressureIn,WindDirection,WindDirectionDegrees,WindSpeedMPH,WindSpeedGustMPH,Humidity,HourlyPrecipIn,Conditions,Clouds,dailyrainin,SoftwareType,DateUTC
2013-01-01 00:29:00,16.7,9.8,30.13,NW,321,12.0,-999.0,74,0.00,,,0.00,Wunderground v.1.13,2013-01-01 06:29:00,
2013-01-01 00:59:00,16.4,9.9,30.14,WNW,302,11.0,-999.0,75,0.00,,,0.00,Wunderground v.1.13,2013-01-01 06:59:00,
2013-01-01 01:29:00,16.2,10.0,30.14,WNW,300,11.0,-999.0,76,0.00,,,0.00,Wunderground v.1.13,2013-01-01 07:29:00,
2013-01-01 01:59:00,15.9,10.0,30.16,NW,318,10.0,-999.0,77,0.00,,,0.00,Wunderground v.1.13,2013-01-01 07:59:00,
2013-01-01 02:29:00,16.0,10.1,30.16,NNW,329,11.0,-999.0,77,0.00,,,0.00,Wunderground v.1.13,2013-01-01 08:29:00,
2013-01-01 02:59:00,16.4,10.7,30.15,NW,304,10.0,-999.0,78,0.00,,,0.00,Wunderground v.1.13,2013-01-01 08:59:00,
2013-01-01 03:29:00,16.2,10.0,30.15,NW,322,12.0,-999.0,76,0.00,,,0.00,Wunderground v.1.13,2013-01-01 09:29:00,
2013-01-01 03:59:00,16.1,9.9,30.16,NNW,329,12.0,-999.0,76,0.00,,,0.00,Wunderground v.1.13,2013-01-01 09:59:00,
2013-01-01 04:29:00,15.7,9.8,30.16,NW,322,12.0,-999.0,77,0.00,,,0.00,Wunderground v.1.13,2013-01-01 10:29:00,
2013-01-01 04:59:00,15.3,10.0,30.17,WNW,298,11.0,-999.0,79,0.00,,,0.00,Wunderground v.1.13,2013-01-01 10:59:00,
2013-01-01 05:29:00,15.3,10.0,30.17,NNW,346,10.0,-999.0,79,0.00,,,0.00,Wunderground v.1.13,2013-01-01 11:29:00,
2013-01-01 05:59:00,14.9,9.6,30.18,NNW,327,12.0,-999.0,79,0.00,,,0.00,Wunderground v.1.13,2013-01-01 11:59:00,
2013-01-01 06:29:00,14.7,9.9,30.18,WNW,300,10.0,-999.0,81,0.00,,,0.00,Wunderground v.1.13,2013-01-01 12:29:00,
2013-01-01 06:59:00,14.9,10.1,30.19,NNW,327,10.0,-999.0,81,0.00,,,0.00,Wunderground v.1.13,2013-01-01 12:59:00,
2013-01-01 07:29:00,15.2,10.4,30.19,NNW,330,10.0,-999.0,81,0.00,,,0.00,Wunderground v.1.13,2013-01-01 13:29:00,
2013-01-01 07:59:00,15.1,10.3,30.19,NNW,329,10.0,-999.0,81,0.00,,,0.00,Wunderground v.1.13,2013-01-01 13:59:00,
2013-01-01 08:29:00,15.3,10.5,30.19,NW,313,8.0,-999.0,81,0.00,,,0.00,Wunderground v.1.13,2013-01-01 14:29:00,
2013-01-01 08:59:00,16.2,11.1,30.19,NW,324,9.0,-999.0,80,0.00,,,0.00,Wunderground v.1.13,2013-01-01 14:59:00,
2013-01-01 09:29:00,16.7,11.3,30.19,NW,324,8.0,-999.0,79,0.00,,,0.00,Wunderground v.1.13,2013-01-01 15:29:00,
2013-01-01 09:59:00,16.4,11.0,30.20,NW,323,7.0,-999.0,79,0.00,,,0.00,Wunderground v.1.13,2013-01-01 15:59:00,
2013-01-01 10:29:00,16.5,11.4,30.18,NW,317,4.0,-999.0,80,0.00,,,0.00,Wunderground v.1.13,2013-01-01 16:29:00,
2013-01-01 10:59:00,16.6,11.2,30.17,NW,307,2.0,-999.0,79,0.00,,,0.00,Wunderground v.1.13,2013-01-01 16:59:00,
2013-01-01 11:29:00,16.9,11.2,30.14,WNW,299,2.0,-999.0,78,0.00,,,0.00,Wunderground v.1.13,2013-01-01 17:29:00,
2013-01-01 11:59:00,17.1,11.1,30.13,WNW,291,4.0,-999.0,77,0.00,,,0.00,Wunderground v.1.13,2013-01-01 17:59:00,
2013-01-01 12:29:00,16.9,10.6,30.11,SW,229,4.0,-999.0,76,0.00,,,0.00,Wunderground v.1.13,2013-01-01 18:29:00,
2013-01-01 12:59:00,17.7,11.1,30.09,SW,236,6.0,-999.0,75,0.00,,,0.00,Wunderground v.1.13,2013-01-01 18:59:00,
2013-01-01 13:29:00,17.7,11.1,30.09,SW,232,8.0,-999.0,75,0.00,,,0.00,Wunderground v.1.13,2013-01-01 19:29:00,
2013-01-01 13:59:00,17.3,11.0,30.08,SW,236,9.0,-999.0,76,0.00,,,0.00,Wunderground v.1.13,2013-01-01 19:59:00,
2013-01-01 14:29:00,18.0,11.7,30.08,SW,232,10.0,-999.0,76,0.00,,,0.00,Wunderground v.1.13,2013-01-01 20:29:00,
2013-01-01 14:59:00,18.2,11.6,30.07,West,259,10.0,-999.0,75,0.00,,,0.00,Wunderground v.1.13,2013-01-01 20:59:00,
2013-01-01 15:29:00,18.3,11.1,30.07,WSW,240,10.0,-999.0,73,0.00,,,0.00,Wunderground v.1.13,2013-01-01 21:29:00,
2013-01-01 15:59:00,17.7,11.1,30.08,WSW,253,9.0,-999.0,75,0.00,,,0.00,Wunderground v.1.13,2013-01-01 21:59:00,
2013-01-01 16:29:00,17.6,10.4,30.08,West,259,10.0,-999.0,73,0.00,,,0.00,Wunderground v.1.13,2013-01-01 22:29:00,
2013-01-01 16:59:00,17.7,10.5,30.07,West,264,9.0,-999.0,73,0.00,,,0.00,Wunderground v.1.13,2013-01-01 22:59:00,
2013-01-01 17:29:00,17.8,10.0,30.07,WSW,254,11.0,-999.0,71,0.00,,,0.00,Wunderground v.1.13,2013-01-01 23:29:00,
2013-01-01 17:59:00,18.1,8.6,30.08,WSW,242,12.0,-999.0,66,0.00,,,0.00,Wunderground v.1.13,2013-01-01 23:59:00,
2013-01-01 18:29:00,18.1,8.6,30.07,WNW,287,11.0,-999.0,66,0.00,,,0.00,Wunderground v.1.13,2013-01-02 00:29:00,
2013-01-01 18:59:00,18.0,8.5,30.07,WSW,253,12.0,-999.0,66,0.00,,,0.00,Wunderground v.1.13,2013-01-02 00:59:00,
2013-01-01 19:29:00,17.7,8.6,30.07,WSW,255,11.0,-999.0,67,0.00,,,0.00,Wunderground v.1.13,2013-01-02 01:29:00,
2013-01-01 19:59:00,17.2,8.4,30.06,West,264,11.0,-999.0,68,0.00,,,0.00,Wunderground v.1.13,2013-01-02 01:59:00,
2013-01-01 20:29:00,16.8,8.7,30.06,WSW,247,10.0,-999.0,70,0.00,,,0.00,Wunderground v.1.13,2013-01-02 02:29:00,
2013-01-01 20:59:00,16.2,8.1,30.07,WSW,252,9.0,-999.0,70,0.00,,,0.00,Wunderground v.1.13,2013-01-02 02:59:00,
2013-01-01 21:29:00,15.5,7.5,30.07,West,266,12.0,-999.0,70,0.00,,,0.00,Wunderground v.1.13,2013-01-02 03:29:00,
2013-01-01 21:59:00,14.9,6.9,30.07,NW,307,12.0,-999.0,70,0.00,,,0.00,Wunderground v.1.13,2013-01-02 03:59:00,
2013-01-01 22:29:00,14.4,6.4,30.07,NW,307,14.0,-999.0,70,0.00,,,0.00,Wunderground v.1.13,2013-01-02 04:29:00,
2013-01-01 22:59:00,15.1,9.2,30.07,WNW,302,10.0,-999.0,77,0.00,,,0.00,Wunderground v.1.13,2013-01-02 04:59:00,
2013-01-01 23:29:00,16.4,11.6,30.06,WNW,290,10.0,-999.0,81,0.00,,,0.00,Wunderground v.1.13,2013-01-02 05:29:00,
2013-01-01 23:59:00,18.4,14.6,30.05,WNW,290,10.0,-999.0,85,0.00,,,0.00,Wunderground v.1.13,2013-01-02 05:59:00,